This is the latest recevied weather packets stored in our database for station/object KC5EZZ-2. If no packets are shown the sender has not sent any weather packets the latest 10 day(s).
| Time | Temp. | Humidity | Pressure | Rain* | Wind** | Luminosity | Snow |
|---|---|---|---|---|---|---|---|
| 1778107652 | 22.22° C | - | - | 0 mm | 2.68 m/s, 101° | - | - |
| 1778107353 | 22.22° C | - | - | 0 mm | 2.68 m/s, 42° | - | - |
| 1778107054 | 22.22° C | - | - | 0 mm | 3.13 m/s, 94° | - | - |
| 1778106452 | 22.22° C | - | - | 0 mm | 2.68 m/s, 89° | - | - |
| 1778106152 | 22.22° C | - | - | 0 mm | 2.68 m/s, 56° | - | - |
| 1778105850 | 22.22° C | - | - | 0 mm | 3.13 m/s, 15° | - | - |
| 1778105550 | 22.22° C | - | - | 0 mm | 2.24 m/s, 41° | - | - |
| 1778105250 | 22.22° C | - | - | 0 mm | 2.24 m/s, 82° | - | - |
| 1778104948 | 22.22° C | - | - | 0 mm | 1.34 m/s, 100° | - | - |
| 1778104648 | 22.22° C | - | - | 0 mm | 1.34 m/s, 39° | - | - |
| 1778104349 | 21.67° C | - | - | 0 mm | 1.34 m/s, 8° | - | - |
| 1778104046 | 21.67° C | - | - | 0 mm | 1.34 m/s, 42° | - | - |
| 1778103747 | 22.22° C | - | - | 0 mm | 0 m/s | - | - |
| 1778103447 | 22.22° C | - | - | 0 mm | 4.02 m/s, 60° | - | - |
| 1778103145 | 22.22° C | - | - | 0 mm | 1.79 m/s, 104° | - | - |
| 1778102845 | 21.67° C | - | - | 0 mm | 2.24 m/s, 28° | - | - |
| 1778102546 | 21.67° C | - | - | 0 mm | 3.58 m/s, 32° | - | - |
| 1778102243 | 21.11° C | - | - | 0 mm | 2.24 m/s, 39° | - | - |
| 1778101944 | 21.11° C | - | - | 0 mm | 2.24 m/s, 11° | - | - |
| 1778101644 | 20.56° C | - | - | 0 mm | 2.24 m/s, 42° | - | - |
| 1778101342 | 21.11° C | - | - | 0 mm | 1.79 m/s, 59° | - | - |
| 1778101042 | 21.11° C | - | - | 0 mm | 2.24 m/s, 55° | - | - |
| 1778100743 | 21.11° C | - | - | 0 mm | 2.68 m/s, 28° | - | - |
| 1778100440 | 21.11° C | - | - | 0 mm | 2.68 m/s, 65° | - | - |
| 1778100141 | 20.56° C | - | - | 0 mm | 3.58 m/s, 72° | - | - |
* Rain latest hour (hover to see other rain measurements)
** Current wind speed in m/s (hover to see current wind gust speed)